Location: Bottom School (historical)
(37.9078°N, 89.3593°W)
Time: 10:43:54
(UTC+00:00)

Cosmos 1570 Rocket - Pass Details

Date: 03 July 2022
Orbit: 762 x 788 km, 74.1° (Epoch: 14 August)

Event Time Altitude Azimuth Distance (km) Brightness Sun altitude
Exits shadow 08:20:29 38° 175° (S) 1,150 4.5 -21.0°
Maximum altitude 08:22:25 68° 105° (ESE) 822 4.1 -20.8°
Drops below altitude 10° 08:27:37 10° 24° (NNE) 2,312 7.6 -20.2°
Sets 08:30:01 0° 21° (NNE) 3,246 8.7 -19.9°
